Tracking 30990 objects as of 9-Jul-2025
HD Live streaming from Space Station
objects crossing your sky now

COSMOS 2147

Track COSMOS 2147 now!
10-day predictions
COSMOS 2147 is classified as:


NORAD ID: 21303
Int'l Code: 1991-033E
Perigee: 1,393.1 km
Apogee: 1,424.7 km
Inclination: 82.6 °
Period: 113.8 minutes
Semi major axis: 7779 km
RCS: 1.105 m2 (large)
Launch date: May 16, 1991
Source: Commonwealth of Independent States (former USSR) (CIS)
Launch site: PLESETSK MISSILE AND SPACE COMPLEX (PKMTR)
Your satellite tracking list
Your tracking list is empty




NASA's NSSDC Master Catalog

Two Line Element Set (TLE):
1 21303U 91033E   25189.87498882  .00000004  00000-0 -36540-4 0  9991
2 21303  82.5674 135.8195 0020329  64.8968 349.4208 12.65154124576731
Source of the keplerian elements: AFSPC